Location: Rounton
(54.4000°N, 1.3500°W)
Time: 04:32:48
(UTC+00:00)

S-56A Canister/Altair - Pass Details

Date: 03 December 2021
Orbit: 633 x 2499 km, 38.9° (Epoch: 17 January)

Event Time Altitude Azimuth Distance (km) Brightness Sun altitude
Rises 23:08:32 0° 206° (SSW) 5,212 - -56.6°
Reaches altitude 10° 23:14:22 10° 185° (S) 3,775 - -56.9°
Maximum altitude 23:18:41 14° 158° (SSE) 3,109 - -57.1°
Drops below altitude 10° 23:22:21 10° 129° (SE) 3,104 - -57.2°
Sets 23:26:16 0° 105° (ESE) 3,728 - -57.4°
